Location: Street
(51.1247°N, 2.7429°W)
Time: 16:51:05
(UTC+01:00)

CAS-6 - Pass Details

Date: 03 April 2023
Orbit: 610 x 632 km, 97.9° (Epoch: 03 June)

Event Time Altitude Azimuth Distance (km) Brightness Sun altitude
Exits shadow 21:35:35 12° 64° (ENE) 1,851 ? -16.7°
Maximum altitude 21:36:16 13° 54° (NE) 1,829 ? -16.8°
Drops below altitude 10° 21:38:10 10° 28° (NNE) 2,012 ? -17.0°
Sets 21:41:32 0° 1° (N) 2,930 ? -17.5°
